Tracking 29594 objects as of 20-Sep-2024
HD Live streaming from Space Station
objects crossing your sky now

FENGYUN 1C DEB

Track FENGYUN 1C DEB now!
10-day predictions


NORAD ID: 31844
Int'l Code: 1999-025CJJ
Perigee: 767.4 km
Apogee: 923.2 km
Inclination: 100.3 °
Period: 101.7 minutes
Semi major axis: 7216 km
RCS: 0.0099 m2 (small)
Launch date: May 10, 1999
Source: People's Republic of China (PRC)
Launch site: Taiyaun Space Center, China (TSC)

Note: This is SATELLITE DEBRIS
Your satellite tracking list
Your tracking list is empty




NASA's NSSDC Master Catalog

Two Line Element Set (TLE):
1 31844U 99025CJJ 24262.20891871  .00005111  00000-0  24629-2 0  9990
2 31844 100.2620 173.9143 0107944 139.4375 221.4901 14.16226327889455
Source of the keplerian elements: AFSPC